Weather History for Luverne, MN

Change the Weather History Date:

Monday, October 29, 2012

  Actual Average (KFSD) Record (KFSD)
Temperature  
Mean Temperature 45 °F 42 °F  
Max Temperature 53 °F 53 °F 86 °F (1937)
Min Temperature 37 °F 31 °F -5 °F (1925)
Degree Days  
Heating Degree Days 20 23  
Month to date heating degree days 489  
Since 1 July heating degree days 693  
Cooling Degree Days 0 0  
Month to date cooling degree days 0  
Year to date cooling degree days 685  
Moisture  
Dew Point 30 °F    
Average Humidity 61    
Maximum Humidity 81    
Minimum Humidity 41    
Precipitation  
Precipitation 0.00 in 0.05 in 1.69 in (1896)
Month to date precipitation 2.07  
Year to date precipitation 24.23  
Snow  
Snow 0.00 in 0.10 in 2.50 in (1929)
Month to date snowfall 1.1  
Since 1 July snowfall 1.1  
Since 1 September snowfall 1.1  
Snow Depth -    
Sea Level Pressure  
Sea Level Pressure 30.15 in    
Wind  
Wind Speed 12 mph (SSE)    
Max Wind Speed 22 mph    
Max Gust Speed 28 mph    
Visibility 10 miles    
Events      
T = Trace of Precipitation, MM = Missing Value Source: NWS Daily Summary

Daily Weather History Graph

Daily Weather History Graph

Search for Another Location

Airport:

Trip Planner

Search our weather history database for the weather conditions in past years. The results will help you decide how hot, cold, wet, or windy it might be!

Date:

Astronomy

Oct. 29, 2012 Rise Set
Actual Time 7:57 AM CDT 6:19 PM CDT
Civil Twilight 7:27 AM CDT 6:48 PM CDT
Nautical Twilight 6:53 AM CDT 7:22 PM CDT
Astronomical Twilight 6:20 AM CDT 7:55 PM CDT
Moon 6:10 PM CDT (10/29) 7:49 AM CDT (10/29)
Length of Visible Light 11h 21m
Length of Day
10h 21m
Full, 100% of the Moon is Illuminated
Oct 29
Full
Oct 29
Full
Nov 6
Last Quarter
Nov 13
New
Nov 20
First Quarter

Hourly Weather History & Observations

Time (CDT) Temp. Windchill Dew Point Humidity Pressure Visibility Wind Dir Wind Speed Gust Speed Precip Events Conditions
12:15 AM 37.4 °F 29.8 °F 32.0 °F 81% 30.20 in 10.0 mi SSE 11.5 mph - N/A   Clear
12:34 AM 37.4 °F 30.8 °F 30.2 °F 75% 30.20 in 10.0 mi SSE 9.2 mph - N/A   Clear
12:54 AM 37.4 °F 30.3 °F 30.2 °F 75% 30.20 in 10.0 mi SSE 10.4 mph - N/A   Clear
1:14 AM 37.4 °F 30.3 °F 30.2 °F 75% 30.19 in 10.0 mi SSE 10.4 mph - N/A   Clear
1:34 AM 37.4 °F 30.3 °F 30.2 °F 75% 30.19 in 10.0 mi SSE 10.4 mph - N/A   Clear
1:55 AM 37.4 °F 29.8 °F 30.2 °F 75% 30.19 in 10.0 mi SSE 11.5 mph - N/A   Scattered Clouds
2:14 AM 39.2 °F 32.0 °F 30.2 °F 70% 30.19 in 10.0 mi SSE 11.5 mph 18.4 mph N/A   Scattered Clouds
2:34 AM 39.2 °F 31.2 °F 30.2 °F 70% 30.18 in 10.0 mi SSE 13.8 mph - N/A   Mostly Cloudy
2:55 AM 39.2 °F 31.6 °F 30.2 °F 70% 30.18 in 10.0 mi SSE 12.7 mph - N/A   Mostly Cloudy
3:14 AM 39.2 °F 32.0 °F 30.2 °F 70% 30.18 in 10.0 mi SSE 11.5 mph - N/A   Scattered Clouds
3:34 AM 39.2 °F 31.6 °F 30.2 °F 70% 30.18 in 10.0 mi SSE 12.7 mph 17.3 mph N/A   Mostly Cloudy
3:54 AM 39.2 °F 31.2 °F 30.2 °F 70% 30.17 in 10.0 mi SSE 13.8 mph 18.4 mph N/A   Mostly Cloudy
4:14 AM 39.2 °F 31.2 °F 30.2 °F 70% 30.17 in 10.0 mi SSE 13.8 mph 18.4 mph N/A   Overcast
4:35 AM 39.2 °F 31.6 °F 28.4 °F 65% 30.16 in 10.0 mi SSE 12.7 mph 19.6 mph N/A   Mostly Cloudy
4:54 AM 39.2 °F 33.0 °F 28.4 °F 65% 30.16 in 10.0 mi SSE 9.2 mph - N/A   Scattered Clouds
5:14 AM 39.2 °F 32.0 °F 28.4 °F 65% 30.16 in 10.0 mi SSE 11.5 mph 17.3 mph N/A   Clear
5:54 AM 39.2 °F 31.6 °F 28.4 °F 65% 30.16 in 10.0 mi SSE 12.7 mph 18.4 mph N/A   Overcast
6:14 AM 39.2 °F 31.2 °F 28.4 °F 65% 30.16 in 10.0 mi SSE 13.8 mph - N/A   Overcast
6:35 AM 39.2 °F 31.2 °F 28.4 °F 65% 30.15 in 10.0 mi SSE 13.8 mph - N/A   Mostly Cloudy
6:54 AM 39.2 °F 31.2 °F 28.4 °F 65% 30.14 in 10.0 mi SSE 13.8 mph 18.4 mph N/A   Mostly Cloudy
7:14 AM 39.2 °F 30.8 °F 28.4 °F 65% 30.15 in 10.0 mi SSE 15.0 mph 19.6 mph N/A   Scattered Clouds
7:35 AM 39.2 °F 32.0 °F 28.4 °F 65% 30.15 in 10.0 mi SSE 11.5 mph 18.4 mph N/A   Mostly Cloudy
7:54 AM 37.4 °F 28.5 °F 28.4 °F 70% 30.14 in 10.0 mi SSE 15.0 mph 19.6 mph N/A   Scattered Clouds
8:14 AM 37.4 °F 28.9 °F 28.4 °F 70% 30.14 in 10.0 mi SSE 13.8 mph - N/A   Clear
8:35 AM 37.4 °F 30.3 °F 28.4 °F 70% 30.17 in 10.0 mi SSE 10.4 mph - N/A   Clear
8:54 AM 37.4 °F 30.3 °F 28.4 °F 70% 30.18 in 10.0 mi SSE 10.4 mph - N/A   Clear
9:14 AM 39.2 °F 31.2 °F 28.4 °F 65% 30.17 in 10.0 mi SSE 13.8 mph 18.4 mph N/A   Clear
9:35 AM 41.0 °F 33.1 °F 28.4 °F 61% 30.17 in 10.0 mi SSE 15.0 mph 18.4 mph N/A   Clear
9:39 AM 41.0 °F 33.5 °F 28.4 °F 61% 30.17 in 10.0 mi SSE 13.8 mph - N/A   Clear
10:05 AM 42.8 °F 35.4 °F 28.4 °F 57% 30.18 in 10.0 mi SSE 15.0 mph 24.2 mph N/A   Clear
10:25 AM 44.6 °F 37.4 °F 28.4 °F 53% 30.18 in 10.0 mi SSE 16.1 mph 25.3 mph N/A   Clear
10:45 AM 44.6 °F 36.6 °F 28.4 °F 53% 30.17 in 10.0 mi SSE 19.6 mph 26.5 mph N/A   Clear
11:05 AM 46.4 °F 39.2 °F 28.4 °F 50% 30.16 in 10.0 mi SSE 18.4 mph 25.3 mph N/A   Clear
11:25 AM 46.4 °F 38.5 °F 28.4 °F 50% 30.17 in 10.0 mi SSE 21.9 mph 26.5 mph N/A   Clear
11:45 AM 48.2 °F - 30.2 °F 50% 30.16 in 10.0 mi South 19.6 mph 25.3 mph N/A   Clear
12:05 PM 50.0 °F - 28.4 °F 43% 30.16 in 10.0 mi South 21.9 mph 26.5 mph N/A   Clear
12:25 PM 50.0 °F - 28.4 °F 43% 30.15 in 10.0 mi South 19.6 mph 25.3 mph N/A   Clear
12:45 PM 50.0 °F - 28.4 °F 43% 30.15 in 10.0 mi South 21.9 mph 27.6 mph N/A   Clear
1:19 PM 51.8 °F - 30.2 °F 44% 30.14 in 10.0 mi South 17.3 mph 21.9 mph N/A   Clear
1:34 PM 51.8 °F - 30.2 °F 44% 30.14 in 10.0 mi South 17.3 mph 21.9 mph N/A   Clear
1:54 PM 51.8 °F - 30.2 °F 44% 30.14 in 10.0 mi South 16.1 mph 21.9 mph N/A   Clear
2:12 PM 51.8 °F - 30.2 °F 44% 30.14 in 10.0 mi South 12.7 mph - N/A   Clear
2:34 PM 53.6 °F - 30.2 °F 41% 30.13 in 10.0 mi South 11.5 mph - N/A   Clear
3:15 PM 53.6 °F - 30.2 °F 41% 30.12 in 10.0 mi South 13.8 mph 18.4 mph N/A   Clear
3:34 PM 53.6 °F - 30.2 °F 41% 30.12 in 10.0 mi SSE 10.4 mph 17.3 mph N/A   Clear
3:54 PM 53.6 °F - 30.2 °F 41% 30.12 in 10.0 mi SSE 12.7 mph - N/A   Clear
4:09 PM 53.6 °F - 30.2 °F 41% 30.12 in 10.0 mi South 11.5 mph - N/A   Clear
4:34 PM 53.6 °F - 30.2 °F 41% 30.11 in 10.0 mi SSE 10.4 mph 18.4 mph N/A   Clear
4:54 PM 53.6 °F - 30.2 °F 41% 30.11 in 10.0 mi South 12.7 mph - N/A   Clear
5:15 PM 53.6 °F - 30.2 °F 41% 30.11 in 10.0 mi SSE 12.7 mph - N/A   Clear
5:35 PM 51.8 °F - 30.2 °F 44% 30.11 in 10.0 mi SSE 9.2 mph - N/A   Clear
5:54 PM 51.8 °F - 30.2 °F 44% 30.12 in 10.0 mi SSE 6.9 mph - N/A   Clear
6:14 PM 50.0 °F - 30.2 °F 47% 30.12 in 10.0 mi SSE 5.8 mph - N/A   Clear
6:35 PM 46.4 °F 43.5 °F 32.0 °F 57% 30.12 in 10.0 mi SE 5.8 mph - N/A   Clear
6:54 PM 44.6 °F 40.7 °F 32.0 °F 61% 30.12 in 10.0 mi SE 6.9 mph - N/A   Clear
7:14 PM 44.6 °F 40.2 °F 32.0 °F 61% 30.13 in 10.0 mi SE 8.1 mph - N/A   Clear
7:35 PM 42.8 °F 39.3 °F 32.0 °F 66% 30.13 in 10.0 mi ESE 5.8 mph - N/A   Clear
7:54 PM 41.0 °F 37.1 °F 30.2 °F 65% 30.13 in 10.0 mi ESE 5.8 mph - N/A   Clear
8:15 PM 41.0 °F 36.4 °F 32.0 °F 70% 30.14 in 10.0 mi ESE 6.9 mph - N/A   Clear
8:34 PM 41.0 °F 34.7 °F 32.0 °F 70% 30.13 in 10.0 mi SE 10.4 mph - N/A   Clear
8:54 PM 42.8 °F 36.6 °F 32.0 °F 66% 30.13 in 10.0 mi ESE 11.5 mph - N/A   Clear
9:15 PM 41.0 °F 35.2 °F 32.0 °F 70% 30.13 in 10.0 mi SE 9.2 mph - N/A   Clear
9:34 PM 41.0 °F 34.3 °F 32.0 °F 70% 30.13 in 10.0 mi SE 11.5 mph - N/A   Clear
9:54 PM 41.0 °F 34.3 °F 30.2 °F 65% 30.14 in 10.0 mi SE 11.5 mph 16.1 mph N/A   Clear
10:15 PM 39.2 °F 32.5 °F 30.2 °F 70% 30.14 in 10.0 mi SE 10.4 mph 18.4 mph N/A   Clear
10:34 PM 39.2 °F 32.5 °F 30.2 °F 70% 30.14 in 10.0 mi SE 10.4 mph - N/A   Clear
10:54 PM 37.4 °F 30.8 °F 30.2 °F 75% 30.14 in 10.0 mi SE 9.2 mph - N/A   Clear
11:15 PM 37.4 °F 30.3 °F 30.2 °F 75% 30.14 in 10.0 mi SE 10.4 mph - N/A   Clear
11:34 PM 37.4 °F 29.8 °F 30.2 °F 75% 30.14 in 10.0 mi SE 11.5 mph - N/A   Clear
11:54 PM 37.4 °F 32.1 °F 30.2 °F 75% 30.14 in 10.0 mi SSE 6.9 mph - N/A   Clear